Location: Risskov
(56.1972°N, 10.2480°E)
Time: 13:20:19
(UTC+00:00)

SL-16 R/B - Pass Details

Date: 05 July 2020
Orbit: 839 x 850 km, 71.0° (Epoch: 07 August)

Event Time Altitude Azimuth Distance (km) Brightness Sun altitude
Exits shadow 23:00:51 14° 189° (S) 2,215 3.8 -11.0°
Maximum altitude 23:05:39 54° 115° (ESE) 1,030 2.5 -11.0°
Drops below altitude 10° 23:11:10 10° 40° (NE) 2,485 5.4 -11.1°
Sets 23:13:41 0° 36° (NE) 3,426 6.3 -11.1°
